Weather History for Bentonville, AR

Change the Weather History Date:

Friday, June 14, 2013

  Actual Average Record
Temperature  
Mean Temperature 80 °F -  
Max Temperature 91 °F 84 °F 103 °F (1953)
Min Temperature 69 °F 63 °F 49 °F (1985)
Cooling Degree Days 15    
Growing Degree Days 30 (Base 50)    
Moisture  
Dew Point 68 °F    
Average Humidity 68    
Maximum Humidity 83    
Minimum Humidity 52    
Precipitation  
Precipitation 0.00 in - - ()
Sea Level Pressure  
Sea Level Pressure 30.00 in    
Wind  
Wind Speed 6 mph (SSE)    
Max Wind Speed 10 mph    
Max Gust Speed 16 mph    
Visibility 10 miles    
Events      
Averages and records for this station are not official NWS values.
T = Trace of Precipitation, MM = Missing Value Source: NWS Daily Summary

Daily Weather History Graph

Daily Weather History Graph

Search for Another Location

Airport:

Trip Planner

Search our weather history database for the weather conditions in past years. The results will help you decide how hot, cold, wet, or windy it might be!

Date:

Astronomy

Jun. 14, 2013 Rise Set
Actual Time 5:58 AM CDT 8:36 PM CDT
Civil Twilight 5:28 AM CDT 9:06 PM CDT
Nautical Twilight 4:50 AM CDT 9:44 PM CDT
Astronomical Twilight 4:08 AM CDT 10:26 PM CDT
Moon 11:26 AM CDT (6/14) No Moon Set
Length of Visible Light 15h 38m
Length of Day
14h 37m
Waxing Crescent, 30% of the Moon is Illuminated
Jun 14
Waxing Crescent
Jun 16
First Quarter
Jun 23
Full
Jun 29
Last Quarter
Jul 8
New

Hourly Weather History & Observations

Time (CDT) Temp. Heat Index Dew Point Humidity Pressure Visibility Wind Dir Wind Speed Gust Speed Precip Events Conditions
12:16 AM 73.4 °F - 64.4 °F 73% 30.01 in 10.0 mi ESE 5.8 mph - N/A   Clear
12:35 AM 73.4 °F - 64.4 °F 73% 30.01 in 10.0 mi ESE 5.8 mph - N/A   Clear
12:55 AM 73.4 °F - 64.4 °F 73% 30.00 in 10.0 mi SE 5.8 mph - N/A   Clear
1:15 AM 71.6 °F - 64.4 °F 78% 30.00 in 10.0 mi SE 5.8 mph - N/A   Clear
1:35 AM 71.6 °F - 64.4 °F 78% 29.99 in 10.0 mi ESE 5.8 mph - N/A   Clear
1:55 AM 71.6 °F - 64.4 °F 78% 29.99 in 10.0 mi SSE 4.6 mph - N/A   Clear
2:15 AM 71.6 °F - 64.4 °F 78% 29.99 in 10.0 mi South 3.5 mph - N/A   Clear
2:35 AM 69.8 °F - 64.4 °F 83% 29.99 in 10.0 mi Calm Calm - N/A   Clear
2:55 AM 71.6 °F - 64.4 °F 78% 29.99 in 10.0 mi East 3.5 mph - N/A   Clear
3:15 AM 71.6 °F - 64.4 °F 78% 29.99 in 10.0 mi East 5.8 mph - N/A   Clear
3:35 AM 71.6 °F - 64.4 °F 78% 29.99 in 10.0 mi East 8.1 mph - N/A   Clear
3:55 AM 71.6 °F - 64.4 °F 78% 30.00 in 10.0 mi East 6.9 mph - N/A   Clear
4:15 AM 71.6 °F - 64.4 °F 78% 30.00 in 10.0 mi East 6.9 mph - N/A   Clear
4:35 AM 71.6 °F - 64.4 °F 78% 30.00 in 10.0 mi ESE 5.8 mph - N/A   Scattered Clouds
5:15 AM 71.6 °F - 64.4 °F 78% 30.00 in 10.0 mi ESE 8.1 mph - N/A   Partly Cloudy
5:35 AM 71.6 °F - 64.4 °F 78% 30.01 in 10.0 mi ESE 6.9 mph - N/A   Clear
6:15 AM 71.6 °F - 64.4 °F 78% 30.01 in 10.0 mi ESE 6.9 mph - N/A   Clear
6:35 AM 71.6 °F - 64.4 °F 78% 30.02 in 10.0 mi ESE 6.9 mph - N/A   Clear
6:55 AM 71.6 °F - 64.4 °F 78% 30.02 in 10.0 mi ESE 5.8 mph - N/A   Clear
7:15 AM 71.6 °F - 64.4 °F 78% 30.03 in 10.0 mi SE 6.9 mph - N/A   Partly Cloudy
7:35 AM 73.4 °F - 64.4 °F 73% 30.04 in 10.0 mi SE 8.1 mph - N/A   Mostly Cloudy
7:55 AM 73.4 °F - 64.4 °F 73% 30.04 in 10.0 mi SE 10.4 mph - N/A   Mostly Cloudy
8:15 AM 75.2 °F - 64.4 °F 69% 30.04 in 10.0 mi SE 9.2 mph - N/A   Partly Cloudy
8:35 AM 75.2 °F - 66.2 °F 73% 30.04 in 10.0 mi SE 8.1 mph - N/A   Partly Cloudy
8:55 AM 77.0 °F - 66.2 °F 69% 30.05 in 10.0 mi SSE 8.1 mph - N/A   Clear
9:15 AM 78.8 °F - 66.2 °F 65% 30.05 in 10.0 mi SSE 9.2 mph - N/A   Clear
9:35 AM 78.8 °F - 66.2 °F 65% 30.05 in 10.0 mi South 6.9 mph - N/A   Scattered Clouds
9:55 AM 80.6 °F 82.7 °F 66.2 °F 61% 30.05 in 10.0 mi SSE 6.9 mph - N/A   Mostly Cloudy
10:15 AM 80.6 °F 83.2 °F 68.0 °F 65% 30.05 in 10.0 mi SSE 5.8 mph - N/A   Scattered Clouds
10:35 AM 82.4 °F 86.3 °F 69.8 °F 66% 30.05 in 10.0 mi SSW 8.1 mph - N/A   Clear
10:55 AM 82.4 °F 86.3 °F 69.8 °F 66% 30.05 in 10.0 mi South 6.9 mph - N/A   Clear
11:15 AM 84.2 °F 88.4 °F 69.8 °F 62% 30.05 in 10.0 mi SSW 5.8 mph - N/A   Mostly Cloudy
11:35 AM 84.2 °F 88.4 °F 69.8 °F 62% 30.04 in 10.0 mi SSE 5.8 mph - N/A   Scattered Clouds
11:55 AM 84.2 °F 88.4 °F 69.8 °F 62% 30.04 in 10.0 mi SSW 9.2 mph - N/A   Clear
12:15 PM 84.2 °F 88.4 °F 69.8 °F 62% 30.04 in 10.0 mi South 6.9 mph 16.1 mph N/A   Partly Cloudy
12:35 PM 84.2 °F 88.4 °F 69.8 °F 62% 30.04 in 10.0 mi SW 6.9 mph - N/A   Mostly Cloudy
12:55 PM 84.2 °F 88.4 °F 69.8 °F 62% 30.03 in 10.0 mi South 5.8 mph - N/A   Partly Cloudy
1:15 PM 86.0 °F 90.4 °F 69.8 °F 58% 30.03 in 10.0 mi SSW 5.8 mph - N/A   Partly Cloudy
1:35 PM 87.8 °F 93.8 °F 71.6 °F 58% 30.02 in 10.0 mi SSW 8.1 mph - N/A   Partly Cloudy
1:55 PM 87.8 °F 93.8 °F 71.6 °F 58% 30.02 in 10.0 mi SSW 3.5 mph - N/A   Clear
2:15 PM 87.8 °F 93.8 °F 71.6 °F 58% 30.02 in 10.0 mi SSW 3.5 mph - N/A   Clear
2:35 PM 89.6 °F 96.2 °F 71.6 °F 55% 30.01 in 10.0 mi SW 6.9 mph - N/A   Clear
2:55 PM 89.6 °F 96.2 °F 71.6 °F 55% 30.00 in 10.0 mi WSW 3.5 mph - N/A   Partly Cloudy
3:15 PM 89.6 °F 96.2 °F 71.6 °F 55% 30.00 in 10.0 mi South 5.8 mph - N/A   Clear
3:35 PM 89.6 °F 96.2 °F 71.6 °F 55% 29.99 in 10.0 mi South 6.9 mph - N/A   Partly Cloudy
3:55 PM 91.4 °F 98.4 °F 71.6 °F 52% 29.98 in 10.0 mi SSW 4.6 mph - N/A   Partly Cloudy
4:15 PM 89.6 °F 96.2 °F 71.6 °F 55% 29.98 in 10.0 mi SSW 3.5 mph - N/A   Partly Cloudy
4:35 PM 89.6 °F 96.2 °F 71.6 °F 55% 29.97 in 10.0 mi SSW 9.2 mph - N/A   Clear
4:55 PM 91.4 °F 98.4 °F 71.6 °F 52% 29.97 in 10.0 mi SSW 8.1 mph - N/A   Clear
5:15 PM 91.4 °F 98.4 °F 71.6 °F 52% 29.96 in 10.0 mi SW 5.8 mph - N/A   Clear
5:35 PM 89.6 °F 96.2 °F 71.6 °F 55% 29.96 in 10.0 mi SSW 6.9 mph - N/A   Clear
5:55 PM 89.6 °F 96.2 °F 71.6 °F 55% 29.96 in 10.0 mi SW 8.1 mph - N/A   Clear
6:15 PM 89.6 °F 96.2 °F 71.6 °F 55% 29.95 in 10.0 mi SW 9.2 mph - N/A   Clear
6:35 PM 89.6 °F 96.2 °F 71.6 °F 55% 29.95 in 10.0 mi SW 8.1 mph - N/A   Clear
6:55 PM 89.6 °F 96.2 °F 71.6 °F 55% 29.95 in 10.0 mi SSW 9.2 mph - N/A   Partly Cloudy
7:16 PM 87.8 °F 93.8 °F 71.6 °F 58% 29.95 in 10.0 mi SSW 9.2 mph - N/A   Clear
7:35 PM 87.8 °F 93.8 °F 71.6 °F 58% 29.95 in 10.0 mi SSW 5.8 mph - N/A   Clear
7:55 PM 87.8 °F 93.8 °F 71.6 °F 58% 29.96 in 10.0 mi SSW 8.1 mph - N/A   Clear
8:16 PM 84.2 °F 89.6 °F 71.6 °F 66% 29.96 in 10.0 mi SSW 6.9 mph - N/A   Clear
8:35 PM 82.4 °F 87.2 °F 71.6 °F 70% 29.96 in 10.0 mi SSW 5.8 mph - N/A   Clear
9:15 PM 82.4 °F 87.2 °F 71.6 °F 70% 29.97 in 10.0 mi South 4.6 mph - N/A   Clear
9:35 PM 78.8 °F - 71.6 °F 78% 29.98 in 10.0 mi SSE 4.6 mph - N/A   Clear
9:55 PM 78.8 °F - 71.6 °F 78% 29.98 in 10.0 mi SE 4.6 mph - N/A   Clear
10:15 PM 78.8 °F - 71.6 °F 78% 29.99 in 10.0 mi SSE 5.8 mph - N/A   Clear
10:35 PM 78.8 °F - 69.8 °F 74% 30.00 in 10.0 mi SSE 5.8 mph - N/A   Clear
10:55 PM 78.8 °F - 69.8 °F 74% 30.00 in 10.0 mi SSE 6.9 mph - N/A   Clear
11:15 PM 77.0 °F - 69.8 °F 78% 30.01 in 10.0 mi SSE 6.9 mph - N/A   Clear
11:35 PM 77.0 °F - 69.8 °F 78% 30.01 in 10.0 mi SE 5.8 mph - N/A   Clear
11:55 PM 75.2 °F - 69.8 °F 83% 30.01 in 10.0 mi SSE 4.6 mph - N/A   Clear